DW1582 Jupiter FL US current weather conditions

sailwx.info

Wind from 094 at 0 knots gusting 3

Air temperature 25.6° C
Dewpoint 22.2° C

Last reported at 2019-Oct-15 03:08 UTC.
Time now 2019-Oct-15 03:36 UTC

Location: N 26°54' W 080°06'.
View on Google Maps.

See reports from other nearby stations

  
Tides and Currents Weather Stations Pressure Air Temp Water Temp Dewpoint Dewpoint Depression Visibility Wind Speed Wind Dir Waves Ship Positions
date/time (UTC)wind fromknots sea level pressurealtimeterstation pressurevisibilityair tempwater tempwave heightnotes
2019-Oct-15 03:08 094 0 gusting 3 25.6
2019-Oct-15 03:04 093 0 gusting 5 25.6
2019-Oct-15 02:58 090 1 gusting 5 25.6
2019-Oct-15 02:53 088 1 gusting 3 25.6
2019-Oct-15 02:48 096 1 gusting 3 25.6
2019-Oct-15 02:43 082 1 gusting 3 25.6
2019-Oct-15 02:38 074 0 gusting 2 25.6
2019-Oct-15 02:33 074 0 gusting 5 26.1
2019-Oct-15 02:28 077 2 gusting 5 26.1
2019-Oct-15 02:23 103 1 gusting 3 26.1
2019-Oct-15 02:18 081 1 gusting 3 26.1
2019-Oct-15 02:13 099 0 gusting 3 26.1
2019-Oct-15 02:08 054 1 gusting 6 26.1
2019-Oct-15 02:03 063 2 gusting 6 26.1
2019-Oct-15 01:58 090 1 gusting 5 26.1
2019-Oct-15 01:53 089 1 gusting 5 26.1
2019-Oct-15 01:48 084 2 gusting 4 26.1
2019-Oct-15 01:43 063 1 gusting 4 26.1
2019-Oct-15 01:38 066 2 gusting 7 26.1
2019-Oct-15 01:33 056 4 gusting 7 26.1
2019-Oct-15 01:28 098 2 gusting 6 26.1
2019-Oct-15 01:24 094 2 gusting 6 26.1
2019-Oct-15 01:18 082 1 gusting 5 26.1
2019-Oct-15 01:13 096 3 gusting 6 26.1
2019-Oct-15 01:08 033 2 gusting 6 26.1
2019-Oct-15 01:03 087 2 gusting 6 26.1
2019-Oct-15 00:58 109 2 gusting 6 26.1
2019-Oct-15 00:53 086 2 gusting 6 26.1
2019-Oct-15 00:48 079 1 gusting 8 26.1
2019-Oct-15 00:43 079 2 gusting 6 26.1
2019-Oct-15 00:38 039 1 gusting 5 26.1
2019-Oct-15 00:33 037 1 gusting 4 26.1
2019-Oct-15 00:28 088 1 gusting 4 26.1
2019-Oct-15 00:23 043 2 gusting 4 26.1
2019-Oct-15 00:18 055 1 gusting 6 26.1
2019-Oct-15 00:13 088 2 gusting 6 26.1
2019-Oct-15 00:08 058 2 gusting 5 26.1
2019-Oct-15 00:03 098 1 gusting 6 26.1
2019-Oct-14 23:58 046 2 gusting 6 26.1
2019-Oct-14 23:53 084 2 gusting 5 26.1
2019-Oct-14 23:48 049 1 gusting 6 26.1
2019-Oct-14 23:43 096 2 gusting 6 26.1
2019-Oct-14 23:38 107 2 gusting 6 26.1
2019-Oct-14 23:33 053 3 gusting 6 26.1
2019-Oct-14 23:28 042 2 gusting 6 26.7
2019-Oct-14 23:23 049 3 gusting 6 26.7
2019-Oct-14 23:18 065 3 gusting 6 26.7
2019-Oct-14 23:13 076 2 gusting 7 26.7
2019-Oct-14 23:08 098 3 gusting 7 26.7
2019-Oct-14 23:03 074 1 gusting 7 26.7
2019-Oct-14 22:58 117 2 gusting 7 26.7
2019-Oct-14 22:53 079 5 gusting 7 26.7
2019-Oct-14 22:48 101 1 gusting 7 26.7
2019-Oct-14 22:44 088 2 gusting 6 26.7
2019-Oct-14 22:38 082 2 gusting 7 26.7
2019-Oct-14 22:34 073 2 gusting 7 26.7
2019-Oct-14 22:28 107 4 gusting 8 27.2
2019-Oct-14 22:23 105 1 gusting 8 27.2
2019-Oct-14 22:18 086 3 gusting 8 27.2
2019-Oct-14 22:13 111 4 gusting 8 27.2
2019-Oct-14 22:08 116 1 gusting 7 27.2
2019-Oct-14 22:03 134 3 gusting 6 27.2
2019-Oct-14 21:58 047 2 gusting 6 27.2
2019-Oct-14 21:53 061 2 gusting 8 27.2
2019-Oct-14 21:48 130 3 gusting 8 27.2
2019-Oct-14 21:43 140 3 gusting 8 27.2
2019-Oct-14 21:38 088 4 gusting 8 27.8
2019-Oct-14 21:33 038 2 gusting 7 27.8
2019-Oct-14 21:28 048 3 gusting 12 27.8
2019-Oct-14 21:23 089 4 gusting 12 27.8
2019-Oct-14 21:18 111 2 gusting 9 27.8
2019-Oct-14 21:13 120 6 gusting 9 27.8
2019-Oct-14 21:08 111 4 gusting 8 28.3
2019-Oct-14 21:03 088 4 gusting 8 28.3
2019-Oct-14 20:58 084 5 gusting 8 28.3
2019-Oct-14 20:53 101 5 gusting 9 28.3
2019-Oct-14 20:48 134 5 gusting 9 28.3
2019-Oct-14 20:43 167 3 gusting 9 28.3
2019-Oct-14 20:38 074 5 gusting 10 28.3
2019-Oct-14 20:33 064 5 gusting 10 28.3
2019-Oct-14 20:28 091 5 gusting 9 28.3
2019-Oct-14 20:23 015 3 gusting 7 28.3
2019-Oct-14 20:19 041 5 gusting 9 28.3
2019-Oct-14 20:13 101 4 gusting 9 28.3
2019-Oct-14 20:08 101 6 gusting 10 27.8
2019-Oct-14 20:03 089 5 gusting 10 27.8
2019-Oct-14 19:58 119 4 gusting 8 28.3
2019-Oct-14 19:53 090 5 gusting 9 28.3
2019-Oct-14 19:48 103 5 gusting 9 28.9
2019-Oct-14 19:43 117 4 gusting 12 28.3
2019-Oct-14 19:38 147 1 gusting 8 28.3
2019-Oct-14 19:33 107 3 gusting 8 28.3
2019-Oct-14 19:28 085 6 gusting 9 28.9
2019-Oct-14 19:23 133 3 gusting 12 28.9
2019-Oct-14 19:19 104 5 gusting 12 28.9
2019-Oct-14 19:13 069 6 gusting 11 28.9
2019-Oct-14 19:08 146 5 gusting 10 28.9
2019-Oct-14 19:03 155 4 gusting 9 28.9
2019-Oct-14 18:58 095 4 gusting 8 28.9
2019-Oct-14 18:53 086 3 gusting 8 28.3
2019-Oct-14 18:48 097 5 gusting 9 28.3
2019-Oct-14 18:43 101 6 gusting 13 28.3
2019-Oct-14 18:38 163 4 gusting 8 28.3
2019-Oct-14 18:33 043 5 gusting 9 28.3
2019-Oct-14 18:28 110 4 gusting 9 28.9
2019-Oct-14 18:23 097 4 gusting 9 28.9
2019-Oct-14 18:18 075 4 gusting 9 28.9
2019-Oct-14 18:13 069 5 gusting 8 28.9
2019-Oct-14 18:08 145 4 gusting 8 28.9
2019-Oct-14 18:03 088 4 gusting 10 28.9
2019-Oct-14 17:58 109 6 gusting 10 28.3
2019-Oct-14 17:53 090 4 gusting 7 28.3
2019-Oct-14 17:48 035 4 gusting 10 28.9
2019-Oct-14 17:43 111 5 gusting 10 28.9
2019-Oct-14 17:38 095 5 gusting 9 28.9
2019-Oct-14 17:34 036 3 gusting 10 28.9
2019-Oct-14 17:28 118 4 gusting 10 28.9
2019-Oct-14 17:24 142 3 gusting 9 28.9
2019-Oct-14 17:18 080 4 gusting 9 28.9
2019-Oct-14 17:13 165 4 gusting 9 28.9
2019-Oct-14 17:08 076 6 gusting 9 28.9
2019-Oct-14 17:03 059 3 gusting 8 28.9
2019-Oct-14 16:58 161 5 gusting 9 28.9
2019-Oct-14 16:54 133 4 gusting 9 28.9
2019-Oct-14 16:48 061 4 gusting 8 28.9
2019-Oct-14 16:43 046 4 gusting 8 28.9
2019-Oct-14 16:38 071 3 gusting 8 28.9
2019-Oct-14 16:33 058 5 gusting 8 28.9
2019-Oct-14 16:28 090 3 gusting 7 28.9
2019-Oct-14 16:23 130 2 gusting 7 28.9
2019-Oct-14 16:18 107 4 gusting 8 28.3
2019-Oct-14 16:14 063 4 gusting 8 28.3
2019-Oct-14 16:08 061 4 gusting 10 28.9
2019-Oct-14 16:03 088 2 gusting 10 28.3
2019-Oct-14 15:58 114 4 gusting 10 28.3
2019-Oct-14 15:53 116 3 gusting 8 28.3
2019-Oct-14 15:48 053 4 gusting 7 28.9
2019-Oct-14 15:43 128 4 gusting 7 28.9
2019-Oct-14 15:38 105 4 gusting 8 28.9
2019-Oct-14 15:34 082 4 gusting 8 28.9
2019-Oct-14 15:28 123 4 gusting 7 28.9
2019-Oct-14 15:23 080 3 gusting 7 28.3
2019-Oct-14 15:18 108 4 gusting 8 28.3
2019-Oct-14 15:13 115 3 gusting 8 28.3
2019-Oct-14 15:08 072 3 gusting 7 28.3
2019-Oct-14 15:03 067 3 gusting 6 28.3
2019-Oct-14 14:59 105 2 gusting 6 28.9
2019-Oct-14 14:53 057 3 gusting 6 28.3
2019-Oct-14 14:48 085 3 gusting 5 28.3
2019-Oct-14 14:43 036 1 gusting 6 28.3
2019-Oct-14 14:38 061 3 gusting 9 28.3
2019-Oct-14 14:34 082 4 gusting 9 28.9
2019-Oct-14 14:28 137 3 gusting 6 28.9
2019-Oct-14 14:23 044 2 gusting 7 28.3
2019-Oct-14 14:18 107 4 gusting 7 28.3
2019-Oct-14 14:13 122 3 gusting 8 28.3
2019-Oct-14 14:08 070 4 gusting 7 28.3
2019-Oct-14 14:03 071 4 gusting 7 28.3
2019-Oct-14 13:58 100 2 gusting 5 28.3
2019-Oct-14 13:53 076 3 gusting 6 28.3
2019-Oct-14 13:49 048 2 gusting 6 28.3
2019-Oct-14 13:43 059 2 gusting 5 27.8
2019-Oct-14 13:38 049 2 gusting 4 27.8
2019-Oct-14 13:33 060 2 gusting 6 28.3
2019-Oct-14 13:28 071 1 gusting 6 28.3
2019-Oct-14 13:23 061 1 gusting 4 27.8
2019-Oct-14 13:18 063 1 gusting 4 27.8
2019-Oct-14 13:13 100 0 gusting 5 27.8
2019-Oct-14 13:08 092 1 gusting 6 27.2
2019-Oct-14 13:03 110 2 gusting 6 27.2
2019-Oct-14 12:58 063 0 gusting 2 26.7
2019-Oct-14 12:53 061 0 gusting 2 26.7
2019-Oct-14 12:48 106 25.6
2019-Oct-14 12:43 106 25.6
2019-Oct-14 12:38 106 25.0
2019-Oct-14 12:33 106 24.4
2019-Oct-14 12:28 106 23.9
2019-Oct-14 12:23 106 23.9
2019-Oct-14 12:18 106 23.9
2019-Oct-14 12:13 106 23.9
2019-Oct-14 12:08 106 23.9
2019-Oct-14 12:03 106 23.9
2019-Oct-14 11:58 106 23.9
2019-Oct-14 11:53 106 23.9
2019-Oct-14 11:48 106 23.9
2019-Oct-14 11:43 106 23.9
2019-Oct-14 11:38 106 23.9
2019-Oct-14 11:34 106 23.9
2019-Oct-14 11:29 106 23.9
2019-Oct-14 11:24 106 23.3
2019-Oct-14 11:18 106 23.9
2019-Oct-14 11:13 106 23.9
2019-Oct-14 11:08 106 23.9
2019-Oct-14 11:03 106 23.9
2019-Oct-14 10:58 106 23.9
2019-Oct-14 10:53 106 23.9
2019-Oct-14 10:48 106 23.9
2019-Oct-14 10:43 106 23.9
2019-Oct-14 10:38 106 23.9
2019-Oct-14 10:33 106 23.9
2019-Oct-14 10:28 106 23.9
2019-Oct-14 10:23 106 23.9
2019-Oct-14 10:18 106 24.4
2019-Oct-14 10:13 106 24.4
2019-Oct-14 10:08 106 24.4
2019-Oct-14 10:04 106 24.4
2019-Oct-14 09:58 106 24.4
2019-Oct-14 09:53 106 24.4
2019-Oct-14 09:48 106 24.4
2019-Oct-14 09:44 106 24.4
2019-Oct-14 09:38 106 0 gusting 0 24.4
2019-Oct-14 09:33 106 24.4
2019-Oct-14 09:28 106 24.4
2019-Oct-14 09:23 106 24.4
2019-Oct-14 09:18 106 25.0
2019-Oct-14 09:13 106 25.0
2019-Oct-14 09:08 106 25.0
2019-Oct-14 09:03 106 25.0
2019-Oct-14 08:58 106 25.0
2019-Oct-14 08:53 106 0 gusting 0 25.0
2019-Oct-14 08:48 106 25.0
2019-Oct-14 08:43 106 25.0
2019-Oct-14 08:38 106 25.0
2019-Oct-14 08:34 106 25.0
2019-Oct-14 08:28 106 25.0
2019-Oct-14 08:23 106 25.0
2019-Oct-14 08:18 106 25.0
2019-Oct-14 08:13 106 25.0
2019-Oct-14 08:08 106 25.0
2019-Oct-14 08:03 106 25.0
2019-Oct-14 07:58 106 25.0
2019-Oct-14 07:53 106 25.0
2019-Oct-14 07:48 106 25.6
2019-Oct-14 07:43 106 25.6
2019-Oct-14 07:38 106 25.6
2019-Oct-14 07:33 106 25.6
2019-Oct-14 07:28 106 25.6
2019-Oct-14 07:23 106 25.6
2019-Oct-14 07:18 106 25.6
2019-Oct-14 07:13 106 0 gusting 1 25.6
2019-Oct-14 07:08 106 0 gusting 1 25.6
2019-Oct-14 07:03 108 25.6
2019-Oct-14 06:58 109 0 gusting 2 25.6
2019-Oct-14 06:53 113 25.6
2019-Oct-14 06:48 113 0 gusting 3 26.1
2019-Oct-14 06:43 113 26.1
2019-Oct-14 06:38 170 1 gusting 2 26.1
2019-Oct-14 06:33 096 0 gusting 2 26.1
2019-Oct-14 06:28 094 0 gusting 5 26.1
2019-Oct-14 06:23 094 1 gusting 5 26.1
2019-Oct-14 06:18 106 0 gusting 3 26.1
2019-Oct-14 06:14 114 0 gusting 3 26.1
2019-Oct-14 06:08 119 0 gusting 2 26.1
2019-Oct-14 06:03 100 1 gusting 3 26.1
2019-Oct-14 05:58 094 1 gusting 5 26.1
2019-Oct-14 05:53 107 1 gusting 5 26.1
2019-Oct-14 05:48 129 1 gusting 3 26.1
2019-Oct-14 05:43 102 0 gusting 3 26.7
2019-Oct-14 05:39 101 1 gusting 5 26.7
2019-Oct-14 05:33 133 1 gusting 5 26.7
2019-Oct-14 05:29 097 1 gusting 4 26.1
2019-Oct-14 05:18 131 0 gusting 6 26.1
2019-Oct-14 05:13 101 2 gusting 6 26.1
2019-Oct-14 05:08 095 1 gusting 4 26.1
2019-Oct-14 05:03 086 2 gusting 6 26.7
2019-Oct-14 04:58 123 3 gusting 6 26.7
2019-Oct-14 04:53 145 2 gusting 3 26.7
2019-Oct-14 04:48 114 0 gusting 6 26.7
2019-Oct-14 04:43 101 2 gusting 6 26.7
2019-Oct-14 04:38 102 1 gusting 5 26.7
2019-Oct-14 04:33 092 1 gusting 3 26.7
2019-Oct-14 04:28 109 1 gusting 5 26.7
2019-Oct-14 04:23 098 2 gusting 5 26.7
2019-Oct-14 04:18 107 1 gusting 4 26.7
2019-Oct-14 04:13 111 1 gusting 4 26.7
2019-Oct-14 04:08 098 1 gusting 6 26.7
2019-Oct-14 04:04 086 0 gusting 6 26.7
2019-Oct-14 03:58 082 1 gusting 3 26.7
2019-Oct-14 03:53 095 2 gusting 5 26.7
2019-Oct-14 03:48 124 1 gusting 5 26.7
2019-Oct-14 03:44 107 1 gusting 5 26.7
2019-Oct-14 03:38 121 2 gusting 3 26.7
2019-Oct-14 03:33 098 1 gusting 3 26.7
2019-Oct-14 03:28 093 1 gusting 3 26.7
2019-Oct-14 03:23 099 1 gusting 6 26.7
2019-Oct-14 03:18 111 2 gusting 6 26.7
2019-Oct-14 03:13 091 2 gusting 5 26.7
2019-Oct-14 03:08 094 2 gusting 5 26.7
2019-Oct-14 03:03 119 1 gusting 7 26.7
2019-Oct-14 02:59 070 2 gusting 7 26.7
2019-Oct-14 02:48 122 2 gusting 7 26.7
2019-Oct-14 02:43 123 3 gusting 7 26.7
2019-Oct-14 02:38 115 1 gusting 6 26.7
2019-Oct-14 02:33 120 2 gusting 6 26.7
2019-Oct-14 02:28 096 2 gusting 6 26.7
2019-Oct-14 02:23 094 2 gusting 7 26.7
2019-Oct-14 02:18 105 2 gusting 7 26.7
2019-Oct-14 02:13 143 2 gusting 6 26.7
2019-Oct-14 02:08 099 2 gusting 6 26.7
2019-Oct-14 02:03 108 2 gusting 6 26.7
2019-Oct-14 01:58 076 4 gusting 6 26.7
2019-Oct-14 01:53 082 2 gusting 6 26.7
2019-Oct-14 01:48 136 2 gusting 7 26.7
2019-Oct-14 01:43 111 2 gusting 5 26.7
2019-Oct-14 01:39 102 2 gusting 6 26.7
2019-Oct-14 01:33 093 2 gusting 6 26.7
2019-Oct-14 01:28 101 2 gusting 6 26.7
2019-Oct-14 01:23 123 2 gusting 6 26.7
2019-Oct-14 01:18 089 2 gusting 6 26.7
2019-Oct-14 01:13 123 3 gusting 6 26.7
2019-Oct-14 01:08 117 2 gusting 5 26.7
2019-Oct-14 01:03 104 1 gusting 5 26.7
2019-Oct-14 00:58 102 1 gusting 5 26.7
2019-Oct-14 00:53 107 1 gusting 4 26.7
2019-Oct-14 00:48 117 1 gusting 6 26.7
2019-Oct-14 00:43 103 3 gusting 6 26.7
2019-Oct-14 00:38 092 1 gusting 5 26.7
2019-Oct-14 00:33 130 1 gusting 5 26.7
2019-Oct-14 00:28 125 2 gusting 6 26.7
2019-Oct-14 00:23 140 2 gusting 6 26.7
2019-Oct-14 00:18 144 2 gusting 6 26.7
2019-Oct-14 00:13 101 2 gusting 6 26.7
2019-Oct-14 00:08 121 1 gusting 6 26.7
2019-Oct-14 00:03 093 1 gusting 6 26.7
2019-Oct-13 23:58 157 2 gusting 6 26.7
2019-Oct-13 23:54 090 3 gusting 7 26.7
2019-Oct-13 23:48 133 3 gusting 6 26.7
2019-Oct-13 23:43 111 1 gusting 6 26.7
2019-Oct-13 23:39 073 4 gusting 6 26.7
2019-Oct-13 23:33 149 2 gusting 6 26.7
2019-Oct-13 23:28 080 2 gusting 6 26.7
2019-Oct-13 23:23 109 2 gusting 6 26.7
2019-Oct-13 23:18 103 0 gusting 6 27.2
2019-Oct-13 23:13 107 2 gusting 7 27.2
2019-Oct-13 23:08 151 2 gusting 7 27.2
2019-Oct-13 23:04 101 2 gusting 6 27.2
2019-Oct-13 22:58 136 2 gusting 6 27.2
2019-Oct-13 22:54 101 2 gusting 6 27.2
2019-Oct-13 22:48 097 3 gusting 6 27.2
2019-Oct-13 22:43 113 2 gusting 6 27.2
2019-Oct-13 22:38 088 2 gusting 6 27.2
2019-Oct-13 22:33 049 1 gusting 6 27.2
2019-Oct-13 22:28 059 3 gusting 6 27.2
2019-Oct-13 22:23 113 3 gusting 7 27.2
2019-Oct-13 22:18 141 3 gusting 6 27.2
2019-Oct-13 22:13 095 3 gusting 7 27.2
2019-Oct-13 22:08 078 2 gusting 7 27.2
2019-Oct-13 22:03 049 2 gusting 8 27.2
2019-Oct-13 21:58 067 4 gusting 9 27.2
2019-Oct-13 21:53 047 4 gusting 9 27.2
2019-Oct-13 21:48 076 4 gusting 9 27.2
2019-Oct-13 21:43 077 6 gusting 9 27.8
2019-Oct-13 21:38 113 4 gusting 10 27.2
2019-Oct-13 21:33 073 5 gusting 10 27.2
2019-Oct-13 21:28 107 4 gusting 8 27.8
2019-Oct-13 21:23 078 5 gusting 8 27.8
2019-Oct-13 21:18 128 4 gusting 7 27.8
2019-Oct-13 21:13 132 2 gusting 8 27.8
2019-Oct-13 21:08 115 4 gusting 8 27.8
2019-Oct-13 21:03 107 3 gusting 6 27.8
2019-Oct-13 20:58 088 4 gusting 7 27.8
2019-Oct-13 20:54 080 4 gusting 8 27.8
2019-Oct-13 20:48 111 5 gusting 7 27.8
2019-Oct-13 20:43 075 4 gusting 6 27.8
2019-Oct-13 20:38 052 4 gusting 9 27.8
2019-Oct-13 20:34 086 3 gusting 10 27.8
2019-Oct-13 20:28 069 5 gusting 10 27.8
2019-Oct-13 20:23 018 3 gusting 11 27.8
2019-Oct-13 20:18 050 4 gusting 11 27.8
2019-Oct-13 20:13 037 4 gusting 8 28.3
2019-Oct-13 20:08 019 3 gusting 10 28.3
2019-Oct-13 20:04 084 4 gusting 10 28.3
2019-Oct-13 19:58 110 3 gusting 11 28.3
2019-Oct-13 19:53 140 4 gusting 10 28.3
2019-Oct-13 19:48 108 5 gusting 10 28.3
2019-Oct-13 19:43 080 5 gusting 10 28.3
2019-Oct-13 19:38 154 6 gusting 10 28.3
2019-Oct-13 19:33 091 2 gusting 7 28.3
2019-Oct-13 19:28 078 5 gusting 7 28.3
2019-Oct-13 19:23 122 5 gusting 7 27.8
2019-Oct-13 19:18 078 284 gusting 284 27.8
2019-Oct-13 19:13 087 6 gusting 9 28.3
2019-Oct-13 19:08 064 4 gusting 11 28.3
2019-Oct-13 19:03 092 6 gusting 11 28.3
2019-Oct-13 18:58 130 5 gusting 10 28.9
2019-Oct-13 18:53 094 4 gusting 9 28.3
2019-Oct-13 18:48 117 5 gusting 9 28.3
2019-Oct-13 18:43 105 4 gusting 12 28.3
2019-Oct-13 18:38 112 6 gusting 12 28.3
2019-Oct-13 18:33 104 5 gusting 12 28.3
2019-Oct-13 18:29 081 4 gusting 12 28.3
2019-Oct-13 18:23 142 5 gusting 10 28.3
2019-Oct-13 18:18 055 5 gusting 11 28.3
2019-Oct-13 18:13 040 6 gusting 11 28.9
2019-Oct-13 18:08 113 3 gusting 10 28.3
2019-Oct-13 18:04 038 6 gusting 10 28.3
2019-Oct-13 17:58 013 3 gusting 10 28.9
2019-Oct-13 17:53 094 5 gusting 10 28.3
2019-Oct-13 17:48 067 4 gusting 10 28.9
2019-Oct-13 17:43 081 4 gusting 9 28.9
2019-Oct-13 17:38 071 4 gusting 11 28.9
2019-Oct-13 17:34 005 5 gusting 11 28.9
2019-Oct-13 17:28 098 5 gusting 10 28.9
2019-Oct-13 17:23 096 5 gusting 10 28.9
2019-Oct-13 17:18 095 2 gusting 8 28.9
2019-Oct-13 17:13 074 5 gusting 7 29.4
2019-Oct-13 17:08 111 3 gusting 7 29.4
2019-Oct-13 17:03 158 4 gusting 7 28.9
2019-Oct-13 16:58 090 3 gusting 9 28.9
2019-Oct-13 16:53 104 3 gusting 8 28.9
2019-Oct-13 16:48 090 3 gusting 8 28.3
2019-Oct-13 16:43 102 5 gusting 10 28.9
2019-Oct-13 16:38 093 5 gusting 12 28.9
2019-Oct-13 16:33 109 4 gusting 10 28.9
2019-Oct-13 16:28 094 3 gusting 7 28.3
2019-Oct-13 16:23 086 4 gusting 7 28.3
2019-Oct-13 16:19 090 3 gusting 8 28.3
2019-Oct-13 16:14 051 5 gusting 8 28.3
2019-Oct-13 16:08 087 2 gusting 8 28.3
2019-Oct-13 16:04 131 5 gusting 8 28.3
2019-Oct-13 15:58 099 3 gusting 8 28.3
2019-Oct-13 15:53 105 4 gusting 8 28.3
2019-Oct-13 15:49 048 3 gusting 7 28.3
2019-Oct-13 15:43 095 2 gusting 7 28.3
2019-Oct-13 15:38 090 3 gusting 8 28.3
2019-Oct-13 15:33 026 2 gusting 6 28.3
2019-Oct-13 15:28 140 2 gusting 7 28.3
2019-Oct-13 15:23 114 3 gusting 6 28.9
2019-Oct-13 15:18 039 3 gusting 8 28.3
2019-Oct-13 15:13 056 4 gusting 8 28.9
2019-Oct-13 15:08 142 4 gusting 8 28.3
2019-Oct-13 15:03 059 3 gusting 8 28.3
2019-Oct-13 14:58 034 6 gusting 8 28.3
2019-Oct-13 14:53 022 4 gusting 9 28.3
2019-Oct-13 14:48 092 3 gusting 9 28.3
2019-Oct-13 14:43 132 3 gusting 8 28.9
2019-Oct-13 14:38 107 3 gusting 8 28.3
2019-Oct-13 14:34 080 5 gusting 8 28.3
2019-Oct-13 14:28 071 4 gusting 8 27.8
2019-Oct-13 14:23 049 5 gusting 8 28.3
2019-Oct-13 14:18 125 2 gusting 8 28.3
2019-Oct-13 14:13 131 3 gusting 7 28.3
2019-Oct-13 14:08 085 3 gusting 7 28.3
2019-Oct-13 14:03 053 4 gusting 7 27.8
2019-Oct-13 13:58 100 4 gusting 8 27.8
2019-Oct-13 13:53 084 3 gusting 8 27.8
2019-Oct-13 13:48 109 4 gusting 8 27.8
2019-Oct-13 13:43 048 5 gusting 8 27.8
2019-Oct-13 13:38 039 3 gusting 9 27.8
2019-Oct-13 13:34 050 4 gusting 9 27.8
2019-Oct-13 13:28 090 5 gusting 8 27.8
2019-Oct-13 13:23 120 1 gusting 7 27.8
2019-Oct-13 13:18 127 2 gusting 7 27.8
2019-Oct-13 13:13 098 2 gusting 7 27.8
2019-Oct-13 13:08 117 3 gusting 8 27.8
2019-Oct-13 13:03 108 2 gusting 8 27.2
2019-Oct-13 12:58 138 3 gusting 7 27.2
2019-Oct-13 12:53 094 3 gusting 6 27.2
2019-Oct-13 12:48 105 3 gusting 6 27.2
2019-Oct-13 12:43 104 1 gusting 5 26.7
2019-Oct-13 12:38 116 1 gusting 6 26.7
2019-Oct-13 12:33 078 2 gusting 6 26.7
2019-Oct-13 12:28 074 2 gusting 5 26.7
2019-Oct-13 12:23 098 1 gusting 3 26.1
2019-Oct-13 12:18 074 1 gusting 3 25.6
2019-Oct-13 12:13 127 0 gusting 1 25.6
2019-Oct-13 12:08 082 0 gusting 1 25.6
2019-Oct-13 12:03 078 0 gusting 1 25.6
2019-Oct-13 11:58 082 0 gusting 1 25.0
2019-Oct-13 11:53 081 25.0
2019-Oct-13 11:48 081 0 gusting 3 24.4
2019-Oct-13 11:43 086 24.4
2019-Oct-13 11:39 086 0 gusting 1 23.9
2019-Oct-13 11:33 085 23.9
2019-Oct-13 11:28 085 23.9
2019-Oct-13 11:23 085 23.9
2019-Oct-13 11:18 085 23.9
2019-Oct-13 11:13 085 23.9
2019-Oct-13 11:08 085 23.9
2019-Oct-13 11:03 085 23.9
2019-Oct-13 10:58 085 23.9
2019-Oct-13 10:53 085 23.9
2019-Oct-13 10:48 085 23.9
2019-Oct-13 10:43 085 23.9
2019-Oct-13 10:38 085 24.4
2019-Oct-13 10:33 085 24.4
2019-Oct-13 10:28 085 24.4
2019-Oct-13 10:23 085 24.4
2019-Oct-13 10:18 085 24.4
2019-Oct-13 10:13 085 24.4
2019-Oct-13 10:08 085 24.4
2019-Oct-13 10:04 085 24.4
2019-Oct-13 09:59 083 0 gusting 2 24.4
2019-Oct-13 09:53 080 0 gusting 2 24.4
2019-Oct-13 09:48 080 0 gusting 2 24.4
2019-Oct-13 09:43 077 24.4
2019-Oct-13 09:38 077 0 gusting 2 24.4
2019-Oct-13 09:33 079 24.4
2019-Oct-13 09:28 079 24.4
2019-Oct-13 09:23 079 24.4
2019-Oct-13 09:18 079 24.4
2019-Oct-13 09:13 084 24.4
2019-Oct-13 09:08 084 24.4
2019-Oct-13 09:03 078 0 gusting 2 24.4
2019-Oct-13 08:58 088 0 gusting 2 24.4
2019-Oct-13 08:54 080 0 gusting 1 24.4
2019-Oct-13 08:48 080 24.4
2019-Oct-13 08:43 080 24.4
2019-Oct-13 08:38 080 0 gusting 2 24.4
2019-Oct-13 08:33 083 0 gusting 1 24.4
2019-Oct-13 08:28 084 24.4
2019-Oct-13 08:23 084 24.4
2019-Oct-13 08:18 084 24.4
2019-Oct-13 08:13 084 24.4
2019-Oct-13 08:08 084 0 gusting 2 24.4
2019-Oct-13 08:03 084 0 gusting 2 25.0
2019-Oct-13 07:58 084 0 gusting 2 25.0
2019-Oct-13 07:53 080 0 gusting 2 25.0
2019-Oct-13 07:48 080 0 gusting 2 25.0
2019-Oct-13 07:43 080 1 gusting 2 25.0
2019-Oct-13 07:38 100 0 gusting 3 25.0
2019-Oct-13 07:33 064 1 gusting 5 25.0
2019-Oct-13 07:28 097 1 gusting 4 25.0
2019-Oct-13 07:23 092 1 gusting 4 25.0
2019-Oct-13 07:18 080 1 gusting 5 25.0
2019-Oct-13 07:13 096 0 gusting 2 25.0
2019-Oct-13 07:08 098 0 gusting 3 25.0
2019-Oct-13 07:03 092 0 gusting 3 25.0
2019-Oct-13 06:59 093 0 gusting 4 25.0
2019-Oct-13 06:53 082 2 gusting 5 25.0
2019-Oct-13 06:48 053 2 gusting 6 25.0
2019-Oct-13 06:43 107 1 gusting 6 25.0
2019-Oct-13 06:38 101 2 gusting 6 25.0
2019-Oct-13 06:33 109 1 gusting 7 25.0
2019-Oct-13 06:28 093 4 gusting 7 25.0
2019-Oct-13 06:23 059 2 gusting 6 25.0
2019-Oct-13 06:18 069 3 gusting 6 25.0
2019-Oct-13 06:13 065 1 gusting 5 25.0
2019-Oct-13 06:08 082 3 gusting 6 25.0
2019-Oct-13 06:03 103 2 gusting 6 25.0
2019-Oct-13 05:58 126 2 gusting 6 25.0
2019-Oct-13 05:53 111 1 gusting 6 25.0
2019-Oct-13 05:48 117 2 gusting 6 25.0
2019-Oct-13 05:43 078 2 gusting 8 25.6
2019-Oct-13 05:39 096 2 gusting 8 25.6
2019-Oct-13 05:33 088 1 gusting 6 25.6
2019-Oct-13 05:28 074 2 gusting 6 25.6
2019-Oct-13 05:23 078 3 gusting 8 25.6
2019-Oct-13 05:18 096 3 gusting 8 25.6
2019-Oct-13 05:13 105 2 gusting 6 25.6
2019-Oct-13 05:08 084 2 gusting 8 25.6
2019-Oct-13 05:03 045 4 gusting 8 25.6
2019-Oct-13 04:58 087 3 gusting 7 25.6
2019-Oct-13 04:53 074 2 gusting 7 25.6
2019-Oct-13 04:48 105 3 gusting 8 25.6
2019-Oct-13 04:43 084 3 gusting 8 25.6
2019-Oct-13 04:38 086 2 gusting 8 25.6
2019-Oct-13 04:33 108 5 gusting 8 25.6
2019-Oct-13 04:28 076 1 gusting 9 25.6
2019-Oct-13 04:23 109 4 gusting 9 25.6
2019-Oct-13 04:18 087 3 gusting 8 25.6
2019-Oct-13 04:13 094 3 gusting 7 25.6
2019-Oct-13 04:08 057 3 gusting 7 25.6
2019-Oct-13 04:03 096 2 gusting 8 25.6
2019-Oct-13 03:58 071 4 gusting 8 25.6
2019-Oct-13 03:53 097 3 gusting 8 25.6
2019-Oct-13 03:43 085 2 gusting 7 25.6
2019-Oct-13 03:38 126 2 gusting 8 25.6
2019-Oct-13 03:33 080 4 gusting 8 25.6
2019-Oct-13 03:28 103 3 gusting 8 26.1
2019-Oct-13 03:23 105 4 gusting 10 26.1
2019-Oct-13 03:18 078 5 gusting 10 26.1
2019-Oct-13 03:13 109 4 gusting 10 26.1
2019-Oct-13 03:09 063 4 gusting 10 26.1
2019-Oct-13 03:04 046 2 gusting 11 26.1